| time (UTC) | temp F | wind direction | speed knots | gust knots | rain 1hr in | rain 24hr in | rain mn in | humidity % | barometer mb |
| 20260502195017 | 42 | 10 | 3.5 | 7.8 | 0.00 | 0.05 | 0.04 | 79 | 1017.3 |
| 20260502194056 | 41 | 18 | 3.5 | 7.8 | 0.00 | 0.05 | 0.04 | 80 | 1017.4 |
| 20260502193016 | 40 | 22 | 4.3 | 7.0 | 0.00 | 0.05 | 0.04 | 81 | 1017.5 |
| 20260502192017 | 40 | 18 | 3.5 | 7.0 | 0.00 | 0.05 | 0.04 | 84 | 1017.6 |
| 20260502191017 | 39 | 36 | 3.5 | 6.1 | 0.00 | 0.05 | 0.04 | 84 | 1017.8 |
| 20260502190017 | 39 | 39 | 5.2 | 7.8 | 0.00 | 0.05 | 0.04 | 85 | 1017.8 |
| 20260502185037 | 39 | 20 | 4.3 | 7.8 | 0.00 | 0.05 | 0.04 | 85 | 1017.8 |
| 20260502184037 | 39 | 17 | 3.5 | 6.1 | 0.00 | 0.05 | 0.04 | 86 | 1017.9 |
| 20260502183038 | 38 | 15 | 3.5 | 7.0 | 0.00 | 0.06 | 0.04 | 86 | 1017.9 |
| 20260502182018 | 39 | 11 | 4.3 | 9.6 | 0.00 | 0.06 | 0.04 | 85 | 1017.9 |
| 20260502181018 | 39 | 13 | 4.3 | 7.8 | 0.00 | 0.07 | 0.04 | 85 | 1018.0 |
| 20260502164016 | 38 | 345 | 3.5 | 7.0 | 0.01 | 0.07 | 0.04 | 91 | 1018.1 |
| 20260502163017 | 37 | 356 | 4.3 | 8.7 | 0.01 | 0.07 | 0.04 | 92 | 1018.2 |
| 20260502162017 | 37 | 351 | 4.3 | 11.3 | 0.01 | 0.08 | 0.04 | 92 | 1018.3 |
| 20260502161057 | 37 | 343 | 4.3 | 7.8 | 0.02 | 0.08 | 0.04 | 92 | 1018.4 |
| 20260502151018 | 40 | 315 | 3.5 | 5.2 | 0.02 | 0.10 | 0.02 | 82 | 1017.8 |
| 20260502123018 | 35 | 1 | 2.6 | 6.1 | 0.00 | 0.26 | 0.00 | 90 | 1016.8 |
| 20260502122018 | 35 | 350 | 3.5 | 5.2 | 0.00 | 0.27 | 0.00 | 89 | 1016.8 |
| 20260502121018 | 34 | 316 | 2.6 | 5.2 | 0.00 | 0.28 | 0.00 | 89 | 1016.7 |
| 20260502115016 | 34 | 284 | 3.5 | 5.2 | 0.00 | 0.28 | 0.00 | 88 | 1016.7 |
| 20260502114016 | 34 | 283 | 2.6 | 6.1 | 0.00 | 0.28 | 0.00 | 89 | 1016.7 |
| 20260502113016 | 33 | 273 | 1.7 | 2.6 | 0.00 | 0.28 | 0.00 | 91 | 1016.7 |
| 20260502112036 | 33 | 268 | 0.9 | 2.6 | 0.00 | 0.28 | 0.00 | 92 | 1016.6 |
| 20260502111037 | 32 | 288 | 0.9 | 1.7 | 0.00 | 0.28 | 0.00 | 92 | 1016.5 |
| 20260502110018 | 31 | 283 | 0.9 | 1.7 | 0.00 | 0.28 | 0.00 | 92 | 1016.4 |
| 20260502105017 | 31 | 341 | 0.9 | 1.7 | 0.00 | 0.28 | 0.00 | 92 | 1016.4 |
| 20260502104017 | 31 | 345 | 0.9 | 1.7 | 0.00 | 0.29 | 0.00 | 91 | 1016.4 |
| 20260502103017 | 32 | 309 | 0.0 | 0.9 | 0.00 | 0.30 | 0.00 | 90 | 1016.5 |
| 20260502102017 | 32 | 296 | 0.9 | 1.7 | 0.00 | 0.30 | 0.00 | 90 | 1016.5 |
| 20260502101017 | 32 | 285 | 0.9 | 1.7 | 0.00 | 0.30 | 0.00 | 90 | 1016.4 |
| 20260502091037 | 34 | 289 | 1.7 | 3.5 | 0.00 | 0.30 | 0.00 | 88 | 1016.4 |
| 20260502071042 | 36 | 285 | 0.9 | 2.6 | 0.00 | 0.30 | 0.00 | 93 | 1016.1 |
| 20260502070038 | 37 | 245 | 0.9 | 2.6 | 0.00 | 0.30 | 0.00 | 94 | 1016.1 |
| 20260502065017 | 37 | 264 | 0.9 | 2.6 | 0.00 | 0.30 | 0.00 | 94 | 1016.1 |
| 20260502064016 | 37 | 280 | 0.9 | 2.6 | 0.00 | 0.30 | 0.00 | 94 | 1016.1 |
| 20260502063018 | 38 | 280 | 0.9 | 1.7 | 0.00 | 0.30 | 0.00 | 94 | 1016.2 |
| 20260502061015 | 39 | 315 | 0.0 | 0.9 | 0.00 | 0.30 | 0.00 | 93 | 1016.4 |
| 20260502060018 | 39 | 255 | 1.7 | 4.3 | 0.00 | 0.30 | 0.00 | 93 | 1016.4 |
| 20260502055036 | 40 | 275 | 0.9 | 4.3 | 0.00 | 0.30 | 0.00 | 93 | 1016.5 |
| 20260502054016 | 40 | 262 | 0.9 | 2.6 | 0.00 | 0.30 | 0.00 | 93 | 1016.5 |
| 20260502053016 | 40 | 237 | 0.0 | 1.7 | 0.00 | 0.30 | 0.00 | 92 | 1016.5 |
| 20260502052016 | 41 | 275 | 0.9 | 1.7 | 0.00 | 0.30 | 0.00 | 91 | 1016.5 |
| 20260502051017 | 41 | 283 | 3.5 | 5.2 | 0.00 | 0.30 | 0.00 | 92 | 1016.5 |
| 20260502050017 | 41 | 285 | 1.7 | 4.3 | 0.00 | 0.30 | 0.00 | 94 | 1016.5 |
| 20260502045017 | 41 | 281 | 0.9 | 2.6 | 0.00 | 0.29 | 0.00 | 94 | 1016.5 |
| 20260502044017 | 40 | 237 | 0.9 | 1.7 | 0.00 | 0.29 | 0.00 | 94 | 1016.5 |
| 20260502043037 | 40 | 293 | 0.0 | 1.7 | 0.00 | 0.29 | 0.00 | 94 | 1016.4 |
| 20260502042018 | 40 | 244 | 0.9 | 2.6 | 0.00 | 0.29 | 0.00 | 94 | 1016.4 |
| 20260502041017 | 41 | 199 | 0.0 | 1.7 | 0.00 | 0.29 | 0.00 | 93 | 1016.5 |
| 20260502040018 | 41 | 206 | 0.9 | 3.5 | 0.00 | 0.29 | 0.00 | 94 | 1016.6 |
| 20260502035015 | 41 | 200 | 0.9 | 3.5 | 0.00 | 0.29 | 0.29 | 94 | 1016.6 |
| 20260502034015 | 41 | 187 | 1.7 | 3.5 | 0.00 | 0.29 | 0.29 | 94 | 1016.6 |
| 20260502033016 | 40 | 186 | 0.9 | 3.5 | 0.00 | 0.29 | 0.29 | 94 | 1016.6 |
| 20260502032016 | 39 | 176 | 1.7 | 3.5 | 0.00 | 0.29 | 0.29 | 94 | 1016.7 |
| 20260502031015 | 39 | 214 | 0.0 | 0.9 | 0.00 | 0.29 | 0.29 | 93 | 1016.6 |
| 20260502030056 | 39 | 61 | 0.0 | 0.9 | 0.00 | 0.29 | 0.29 | 92 | 1016.5 |
| 20260502025016 | 39 | 13 | 0.0 | 0.9 | 0.00 | 0.29 | 0.29 | 92 | 1016.5 |
| 20260502024016 | 40 | 322 | 0.0 | 0.9 | 0.00 | 0.29 | 0.29 | 91 | 1016.4 |
| 20260502023016 | 40 | 186 | 0.0 | 1.7 | 0.00 | 0.29 | 0.29 | 91 | 1016.3 |
| 20260502022017 | 41 | 35 | 0.9 | 1.7 | 0.00 | 0.29 | 0.29 | 90 | 1016.3 |
| 20260502021017 | 41 | 4 | 0.0 | 0.9 | 0.00 | 0.29 | 0.29 | 90 | 1016.3 |
| 20260502020017 | 42 | 20 | 1.7 | 2.6 | 0.00 | 0.29 | 0.29 | 90 | 1016.3 |
| 20260502015017 | 42 | 22 | 1.7 | 2.6 | 0.00 | 0.29 | 0.29 | 91 | 1016.3 |
| 20260502013017 | 41 | 358 | 0.0 | 1.7 | 0.00 | 0.29 | 0.29 | 91 | 1015.9 |
| 20260502012017 | 41 | 269 | 0.0 | 0.9 | 0.00 | 0.29 | 0.29 | 91 | 1015.7 |
| 20260502011016 | 42 | 0.0 | 0.0 | 0.00 | 0.29 | 0.29 | 91 | 1015.7 | |
| 20260502005016 | 42 | 268 | 0.0 | 0.9 | 0.00 | 0.29 | 0.29 | 89 | 1015.6 |
| 20260502004017 | 42 | 357 | 0.0 | 0.9 | 0.00 | 0.29 | 0.29 | 89 | 1015.7 |
| 20260502003015 | 42 | 37 | 0.0 | 0.9 | 0.00 | 0.29 | 0.29 | 88 | 1015.7 |
| 20260502002015 | 43 | 31 | 0.0 | 0.9 | 0.00 | 0.29 | 0.29 | 87 | 1015.6 |
| 20260502001036 | 43 | 0.0 | 0.0 | 0.00 | 0.29 | 0.29 | 86 | 1015.3 | |
| 20260502000016 | 43 | 352 | 0.9 | 1.7 | 0.00 | 0.29 | 0.29 | 85 | 1015.2 |
| 20260501235017 | 43 | 299 | 1.7 | 3.5 | 0.00 | 0.29 | 0.29 | 85 | 1015.1 |
| 20260501234016 | 43 | 310 | 1.7 | 4.3 | 0.00 | 0.29 | 0.29 | 86 | 1015.1 |
| 20260501233017 | 43 | 296 | 0.9 | 2.6 | 0.00 | 0.29 | 0.29 | 85 | 1015.0 |
| 20260501232017 | 43 | 339 | 0.9 | 1.7 | 0.00 | 0.29 | 0.29 | 85 | 1014.9 |
| 20260501231017 | 43 | 317 | 2.6 | 3.5 | 0.00 | 0.29 | 0.29 | 84 | 1015.0 |
| 20260501230037 | 43 | 320 | 2.6 | 4.3 | 0.00 | 0.29 | 0.29 | 85 | 1015.0 |
| 20260501225017 | 43 | 349 | 2.6 | 5.2 | 0.00 | 0.29 | 0.29 | 84 | 1015.0 |
| 20260501224017 | 44 | 333 | 2.6 | 4.3 | 0.00 | 0.29 | 0.29 | 84 | 1015.1 |
| 20260501223018 | 44 | 341 | 2.6 | 5.2 | 0.00 | 0.29 | 0.29 | 85 | 1015.1 |
| 20260501222018 | 44 | 1 | 3.5 | 5.2 | 0.00 | 0.29 | 0.29 | 85 | 1015.2 |
| 20260501221018 | 44 | 324 | 4.3 | 6.1 | 0.01 | 0.29 | 0.29 | 84 | 1014.9 |
| 20260501220016 | 43 | 360 | 2.6 | 5.2 | 0.01 | 0.29 | 0.29 | 85 | 1014.8 |
| 20260501215015 | 43 | 355 | 1.7 | 4.3 | 0.01 | 0.29 | 0.29 | 85 | 1014.7 |
| 20260501214015 | 43 | 11 | 3.5 | 7.0 | 0.01 | 0.29 | 0.29 | 89 | 1014.6 |
| 20260501213016 | 42 | 3 | 4.3 | 7.8 | 0.01 | 0.29 | 0.29 | 90 | 1014.6 |
| 20260501212016 | 43 | 359 | 5.2 | 10.4 | 0.01 | 0.29 | 0.29 | 88 | 1014.5 |
| 20260501211016 | 44 | 318 | 3.5 | 6.1 | 0.00 | 0.28 | 0.28 | 86 | 1014.5 |
| 20260501210017 | 44 | 336 | 3.5 | 5.2 | 0.00 | 0.28 | 0.28 | 85 | 1014.3 |
| 20260501205016 | 44 | 344 | 2.6 | 4.3 | 0.00 | 0.28 | 0.28 | 87 | 1014.2 |
| 20260501204017 | 44 | 338 | 4.3 | 8.7 | 0.00 | 0.28 | 0.28 | 86 | 1014.2 |
| 20260501203017 | 44 | 346 | 3.5 | 5.2 | 0.00 | 0.28 | 0.28 | 88 | 1014.0 |
| 20260501202017 | 43 | 9 | 3.5 | 5.2 | 0.00 | 0.28 | 0.28 | 89 | 1014.0 |
| 20260501201017 | 42 | 351 | 4.3 | 7.0 | 0.00 | 0.28 | 0.28 | 89 | 1014.1 |
| 20260501200017 | 43 | 348 | 6.1 | 9.6 | 0.00 | 0.28 | 0.28 | 89 | 1013.9 |